User: anonymous
Location: Harbor Island
(32.3990°N, 80.4435°W)
Time: 11:51:34
(UTC-04:00)
Language:

Cosmos 1455 - Orbit

View from above orbital plane
View from above orbital plane
View from above satellite
View from above satellite

Ground track
Ground track

The orbit data is extracted from the following two-line orbital elements,

1 14032U 83037A   14203.68449833  .00001198  00000-0  69171-4 0  5854
2 14032 082.5155 051.1329 0019584 358.1601 067.1102 15.11246734700817
Epoch (UTC): 22 July 2014 16:25:40
Eccentricity: 0.0019584
inclination: 82.5155°
perigee height: 519 km
apogee height: 546 km
right ascension of ascending node: 51.1329°
argument of perigee: 358.1601°
revolutions per day: 15.11246734
mean anomaly at epoch: 67.1102°
orbit number at epoch: 70081

The dashed part of the orbit path shows where the satellite is in the earth's shadow,  

DLR